Terminal Aerodrome Forecast
Issued by NWS

Home | Current Version | Previous Version | Text Only | Print | Product List | Glossary Off
Versions: 1 2 3 4 5 6 7 8 9 10 11 12 13 14 15 16 17 18

651
FTUS43 KFGF 061120
TAFBJI
TAF
KBJI 061120Z 0612/0712 18006KT P6SM SCT200
     FM061400 18008KT P6SM BKN080
     FM062300 20013G20KT P6SM BKN080
     FM070600 25014G22KT P6SM OVC025=

USA.gov is the U.S. government's official web portal to all federal, state and local government web resources and services.